Retour au catalogue

USA 40 R/B

ActifHEO
NORAD 20344·ROCKET BODY·🇺🇸 United States

Lancé Aug 8, 1989 depuis Cape Canaveral Space Force Station

Loading…

Prochains Passages (prochaines 24 heures)

TLE

FraisSource: Space-Track

Époque: Sep 14, 2026, 14:50 UTC

1 20344U 89061D   26257.61834846  .00000280  00000-0  24594-3 0  9996
2 20344  57.0038 128.0016 3554552   1.4300 359.3993  7.89041045219789

Suivez USA 40 R/B en temps réel avec AllMySat

Download on the App Store